Regional Weather Roundup
Issued by NWS San Angelo, TX

Home | Current Version | Previous Version | Text Only | Print | Product List | Glossary On
Versions: 1 2 3 4 5 6 7 8 9 10 11 12 13 14 15 16 17 18 19 20 21 22 23 24 25 26 27 28 29 30 31 32 33 34 35 36 37 38 39 40 41 42 43 44 45 46 47 48 49 50
000
ASUS44 KSJT 201010
RWRSJT
WEST CENTRAL TEXAS REGIONAL WEATHER ROUNDUP
NATIONAL WEATHER SERVICE SAN ANGELO TX
500 AM CDT SUN AUG 20 2017

NOTE: "FAIR" INDICATES FEW OR NO CLOUDS BELOW 12,000 FEET WITH NO
SIGNIFICANT WEATHER AND/OR OBSTRUCTIONS TO VISIBILITY.

TXZ049-054-064>066-071>073-076>078-098-099-113-114-127-128-139-140-
154-155-168>170-201100
...LOCATIONS ACROSS WEST CENTRAL TEXAS...

CITY           SKY/WX    TMP DP  RH WIND       PRES   REMARKS
SAN ANGELO     CLEAR     77  63  61 S10       30.00R
ABILENE        CLEAR     76  65  68 S12       30.00R
DYESS AFB      CLEAR     71  67  89 S10       29.98R
JUNCTION       CLEAR     77  66  68 S8        30.02R
SWEETWATER     CLEAR     73  64  71 S9        30.04S
BROWNWOOD      PTCLDY    73  64  73 SE3       30.00S
COLEMAN        SUNNY     76  63  62 S8        30.01R
SONORA         CLEAR     77  68  73 S7        30.07R
OZONA          FAIR      73  63  68 S10G16    30.05R
BRADY          NOT AVBL
$$

TEXAS PANHANDLE/OKLAHOMA PANHANDLE

CITY           SKY/WX    TMP DP  RH WIND       PRES   REMARKS
AMARILLO       CLEAR     69  64  84 SW14      30.06F
BORGER         CLEAR     74  64  71 SW12G20   30.01F
CANADIAN       CLEAR     71  67  85 CALM      29.98S
DALHART        CLEAR     66  64  93 S9        30.06F
DUMAS          SUNNY     68  62  81 S12       30.04S
GUYMON         NOT AVBL
HEREFORD       PTSUNNY   70  62  75 SW10G20   30.09S
PAMPA          SUNNY     73  64  74 S13       30.03S
PERRYTON       CLEAR     71  66  84 SW8       29.97F
$$

SOUTHERN PANHANDLE/SOUTH PLAINS/ROLLING PLAINS

CITY           SKY/WX    TMP DP  RH WIND       PRES   REMARKS
LUBBOCK        CLOUDY    67  61  81 NW12      30.07S
SNYDER         CLEAR     73  65  76 S6        30.03R
CHILDRESS      CLOUDY    76  65  68 SE7       30.00S
SEMINOLE       MOSUNNY   68  60  76 NE3       30.08S
$$

PERMIAN BASIN

CITY           SKY/WX    TMP DP  RH WIND       PRES   REMARKS
MIDLAND        CLEAR     74  63  68 SE6       30.03R
ODESSA         PTCLDY    78  60  53 S6        30.04R
WINK           CLOUDY    74  62  66 E5        30.00S
$$

FAR WEST/SOUTHWEST MOUNTAINS/TRANS PECOS

CITY           SKY/WX    TMP DP  RH WIND       PRES   REMARKS
ALPINE         SUNNY     68  59  72 SW8       30.17S
DRYDEN           N/A     75  62  64 E5        29.98S
EL PASO        MOCLDY    68  65  90 N8        30.07F
FORT STOCKTON  CLEAR     77  60  55 S10       30.02S
GUADALUPE PASS LGT RAIN  68  60  75 SW5       30.19S
MARFA          CLEAR     61  58  90 N5        30.16F
PECOS          CLOUDY    73  69  87 NE6       29.99F
$$

DALLAS/FORT WORTH METROPLEX

CITY           SKY/WX    TMP DP  RH WIND       PRES   REMARKS
DFW AIRPORT    PTCLDY    84  70  62 S12       29.93S
FTW MEACHAM    CLEAR     82  70  66 S9        29.94F
DAL-EXECUTIVE  CLEAR     81  71  71 VRB5      29.95S
GRAND PRAIRIE  CLEAR     82  67  61 S7        29.97S
ADDISON        CLEAR     83  70  66 S7        29.97S
MESQUITE         N/A     76  73  91 SW5       29.95F
LANCASTER      SUNNY     78  71  79 S3        29.96F
$$

NORTH CENTRAL TEXAS

CITY           SKY/WX    TMP DP  RH WIND       PRES   REMARKS
SHRMAN/DENISON SUNNY     78  73  82 S8        29.96S
GAINESVILLE    CLOUDY    76  72  86 S7        29.97S
BRIDGEPORT     CLOUDY    77  68  74 S5        29.97S
DENTON         CLEAR     80  70  71 S8        29.94S
WAXAHACHIE     SUNNY     77  70  80 S5        29.97F
GRANBURY       SUNNY     79  68  69 S6        29.97S
$$

WESTERN NORTH TEXAS

CITY           SKY/WX    TMP DP  RH WIND       PRES   REMARKS
WICHITA FALLS  CLOUDY    73  70  90 S7        29.93S
VERNON         PTSUNNY   74  68  80 NE3       29.96S
BRECKENRIDGE   SUNNY     76  65  69 S8        29.97S
COMANCHE       CLEAR     79  66  65 S12G17    29.99S
$$

CENTRAL AND SOUTH CENTRAL TEXAS

CITY           SKY/WX    TMP DP  RH WIND       PRES   REMARKS
AUSTIN/BERGSTM PTCLDY    77  74  90 SW7       29.97F
WACO           CLEAR     80  70  71 S8        29.96S
HILLSBORO      SUNNY     79  70  72 S8        29.97S
TEMPLE         CLEAR     78  68  71 S8        29.98S
KILLEEN-GRAY   CLEAR     78  67  68 S8        29.98S
FORT HOOD      CLEAR     77  67  69 S8        29.95S
GEORGETOWN     CLEAR     79  70  74 SW7       30.00R
LAGO VISTA     FAIR      78  70  75 SW5       30.01S
SAN MARCOS     CLOUDY    78  74  87 SW6       29.99S
NEW BRAUNFELS  CLOUDY    78  74  87 SW8       29.98S
RANDOLPH AFB   MOCLDY    78  77  98 SW7       29.99F
SAN ANTONIO    PTCLDY    79  73  82 S9        30.00S
STINSON        CLOUDY    79  74  84 CALM      29.97S
PLEASANTON     NOT AVBL
LA GRANGE      CLEAR     79  76  93 CALM      29.95S
GIDDINGS       SUNNY     76  73  90 CALM      29.98S
$$

EAST TEXAS

CITY           SKY/WX    TMP DP  RH WIND       PRES   REMARKS
PARIS          PTCLDY    76  74  93 SE3       29.97S
CLARKSVILLE    NOT AVBL
TYLER          CLEAR     77  76  96 S6        29.96F
LONGVIEW       CLEAR     78  76  93 S5        29.96S
PALESTINE      SUNNY     77  74  88 CALM      29.98S
NACOGDOCHES    CLEAR     75  73  94 CALM      29.98S
$$

TEXAS HILL COUNTRY AND EDWARDS PLATEAU

CITY           SKY/WX    TMP DP  RH WIND       PRES   REMARKS
LLANO          SUNNY     75  66  73 CALM      30.03S
HORSESHOE BAY  FAIR      77  68  73 S7        29.99S
KERRVILLE      CLEAR     74  71  90 S7        30.03F
FREDERICKSBRG  CLEAR     73  65  75 CALM      30.04S
ROCKSPRINGS    NOT AVBL
HONDO          NOT AVBL
UVALDE         SUNNY     74  69  84 CALM      30.00S
DEL RIO        CLEAR     82  70  66 E9        29.95S
$$

SOUTHEAST TEXAS

CITY           SKY/WX    TMP DP  RH WIND       PRES   REMARKS
COLLEGE STN    CLEAR     78  75  90 S5        29.97S
CALDWELL       NOT AVBL
CROCKETT       SUNNY     75  73  94 CALM      30.01R
BRENHAM        CLEAR     80  77  91 CALM      29.97S
HUNTSVILLE     CLEAR     78  73  84 S5        29.98S
CONROE         CLEAR     73  72  96 CALM      29.98S
HOUSTON BUSH   PTCLDY    78  75  90 CALM      29.97R
HOUSTON HOBBY  PTCLDY    81  75  82 CALM      29.96S
PERLAND        CLEAR     80  74  81 CALM      29.98R
WHARTON        SUNNY     74  71  92 CALM      29.97S FOG
$$

THE UPPER TEXAS COAST

CITY           SKY/WX    TMP DP  RH WIND       PRES   REMARKS
ORANGE         SUNNY     77  77 100 CALM      29.99S FOG
PORT ARTHUR    CLEAR    N/A N/A N/A CALM      29.97S
GALVESTON      CLEAR     82  78  88 CALM      29.97R
ANGLETON       CLEAR     74  73  97 CALM      29.96S FOG
BAY CITY       SUNNY     76  76  99 CALM      29.96S
$$

TEXAS COASTAL BEND, RIO GRANDE PLAINS DEEP SOUTH TEXAS

CITY           SKY/WX    TMP DP  RH WIND       PRES   REMARKS
VICTORIA       CLEAR     76  74  93 S3        29.96S
BEEVILLE       FAIR     N/A N/A N/A S3        29.95F
ROCKPORT         N/A    N/A N/A N/A CALM      29.94S
PORT ARANSAS   SUNNY     82  78  88 S6        29.95S
PORT LAVACA    SUNNY     77  74  90 S3        29.96S
CORPUS CHRISTI PTCLDY    76  75  97 S5        29.95S
KINGSVILLE NAS CLEAR     78  78 100 S3        29.95F
COTULLA        CLEAR     78  72  81 SE9       29.96S
LAREDO         CLEAR     80  72  76 SE12      29.95S
BROWNSVILLE    CLEAR     77  77 100 SE3       29.94F
PORT ISABEL    CLEAR     78  77  96 S3        29.94F
HEBBRONVILLE   SUNNY     74  72  91 CALM      29.98S
MCALLEN        PTCLDY    79  74  84 SE5       29.95F
WESLACO        CLEAR     78  75  89 S3        29.93F
FALFURRIAS     SUNNY     76  74  95 CALM      29.95F
EDINBURG       SUNNY     78  74  87 CALM      29.95S
$$




USA.gov is the U.S. government's official web portal to all federal, state and local government web resources and services.